TimeCDT,TemperatureF,Dew PointF,Humidity,Sea Level PressureIn,VisibilityMPH,Wind Direction,Wind SpeedMPH,Gust SpeedMPH,PrecipitationIn,Events,Conditions,WindDirDegrees,DateUTC
12:53 AM,66.0,64.9,96,29.98,10.0,North,5.8,-,N/A,,Clear,360,2013-06-18 05:53:00
1:53 AM,66.0,64.9,96,29.97,10.0,North,4.6,-,N/A,,Clear,350,2013-06-18 06:53:00
2:53 AM,64.0,64.0,100,29.95,9.0,NW,5.8,-,N/A,,Clear,310,2013-06-18 07:53:00
3:53 AM,64.0,63.0,96,29.94,8.0,NNW,3.5,-,N/A,,Clear,330,2013-06-18 08:53:00
4:24 AM,62.6,62.6,100,29.98,3.0,North,3.5,-,N/A,,Scattered Clouds,350,2013-06-18 09:24:00
4:26 AM,62.6,62.6,100,29.98,1.8,Calm,Calm,-,N/A,,Scattered Clouds,0,2013-06-18 09:26:00
4:28 AM,62.6,62.6,100,29.98,1.0,North,3.5,-,N/A,,Mist,350,2013-06-18 09:28:00
4:36 AM,62.6,62.6,100,29.98,0.5,NNW,3.5,-,N/A,Fog,Fog,340,2013-06-18 09:36:00
4:53 AM,62.1,62.1,100,29.96,1.0,North,3.5,-,N/A,,Mist,10,2013-06-18 09:53:00
5:02 AM,62.6,62.6,100,29.99,0.5,North,4.6,-,N/A,Fog,Fog,360,2013-06-18 10:02:00
5:20 AM,62.6,62.6,100,30.00,1.0,North,4.6,-,N/A,,Mist,360,2013-06-18 10:20:00
5:26 AM,62.6,62.6,100,30.00,2.0,North,4.6,-,N/A,,Scattered Clouds,360,2013-06-18 10:26:00
5:38 AM,62.6,62.6,100,30.00,4.0,NNE,4.6,-,N/A,,Scattered Clouds,30,2013-06-18 10:38:00
5:45 AM,62.6,62.6,100,30.00,2.0,NNE,3.5,-,N/A,,Mostly Cloudy,20,2013-06-18 10:45:00
5:48 AM,62.6,62.6,100,30.01,1.0,NNE,3.5,-,N/A,,Mist,30,2013-06-18 10:48:00
5:53 AM,63.0,63.0,100,29.98,0.2,NNE,3.5,-,N/A,Fog,Fog,30,2013-06-18 10:53:00
6:01 AM,62.6,62.6,100,30.01,0.2,NNE,4.6,-,N/A,Fog,Fog,20,2013-06-18 11:01:00
6:27 AM,62.6,62.6,100,30.01,0.2,North,5.8,-,N/A,Fog,Fog,10,2013-06-18 11:27:00
6:48 AM,62.6,62.6,100,30.01,0.2,NNE,5.8,-,N/A,Fog,Fog,30,2013-06-18 11:48:00
6:53 AM,64.0,64.0,100,29.98,0.2,NE,4.6,-,N/A,Fog,Fog,40,2013-06-18 11:53:00
7:50 AM,64.4,64.4,100,30.03,0.2,NNE,5.8,-,N/A,Fog,Fog,20,2013-06-18 12:50:00
7:53 AM,64.9,64.9,100,30.00,0.2,NNE,4.6,-,N/A,Fog,Fog,20,2013-06-18 12:53:00
8:05 AM,66.2,66.2,100,30.03,0.5,NNE,4.6,-,N/A,Fog,Fog,30,2013-06-18 13:05:00
8:17 AM,66.2,66.2,100,30.03,2.0,NNE,4.6,-,N/A,,Overcast,30,2013-06-18 13:17:00
8:25 AM,66.2,66.2,100,30.03,5.0,North,3.5,-,N/A,,Overcast,10,2013-06-18 13:25:00
8:53 AM,66.9,66.9,100,30.02,8.0,ENE,4.6,-,N/A,,Overcast,70,2013-06-18 13:53:00
9:22 AM,69.8,66.2,88,30.05,9.0,Calm,Calm,-,N/A,,Scattered Clouds,0,2013-06-18 14:22:00
9:53 AM,71.1,66.0,84,30.03,8.0,ENE,4.6,-,N/A,,Partly Cloudy,60,2013-06-18 14:53:00
10:53 AM,75.9,66.0,71,30.03,10.0,Calm,Calm,-,N/A,,Clear,0,2013-06-18 15:53:00
11:53 AM,78.1,64.9,64,30.03,7.0,ENE,4.6,-,N/A,,Clear,70,2013-06-18 16:53:00
12:53 PM,80.1,63.0,56,30.02,10.0,ESE,6.9,-,N/A,,Clear,110,2013-06-18 17:53:00
1:53 PM,81.0,63.0,54,30.01,10.0,ENE,8.1,-,N/A,,Clear,60,2013-06-18 18:53:00
2:53 PM,81.0,62.1,52,29.99,10.0,East,8.1,-,N/A,,Clear,100,2013-06-18 19:53:00
3:53 PM,81.0,64.0,56,29.97,10.0,East,4.6,-,N/A,,Clear,100,2013-06-18 20:53:00
4:53 PM,82.0,64.0,54,29.96,10.0,ESE,8.1,-,N/A,,Clear,120,2013-06-18 21:53:00
5:53 PM,81.0,62.1,52,29.95,10.0,SE,8.1,-,N/A,,Clear,130,2013-06-18 22:53:00
6:53 PM,81.0,62.1,52,29.96,10.0,East,5.8,-,N/A,,Clear,80,2013-06-18 23:53:00
7:53 PM,79.0,64.0,60,29.98,9.0,East,3.5,-,N/A,,Clear,90,2013-06-19 00:53:00
8:53 PM,73.9,63.0,68,29.99,10.0,Calm,Calm,-,N/A,,Clear,0,2013-06-19 01:53:00
9:53 PM,70.0,63.0,78,30.00,10.0,Calm,Calm,-,N/A,,Clear,0,2013-06-19 02:53:00
10:53 PM,68.0,62.1,81,29.99,10.0,Calm,Calm,-,N/A,,Clear,0,2013-06-19 03:53:00
11:53 PM,66.9,63.0,87,29.99,10.0,Calm,Calm,-,N/A,,Clear,0,2013-06-19 04:53:00